Weather History for Midland, MI

Change the Weather History Date:

Saturday, May 11, 2013

  Actual Average (KMBS) Record (KMBS)
Temperature  
Mean Temperature 48 °F 56 °F  
Max Temperature 58 °F 66 °F 80 °F (2014)
Min Temperature 37 °F 45 °F 36 °F (1997)
Degree Days  
Heating Degree Days 18    
Month to date heating degree days  
Since 1 July heating degree days  
Cooling Degree Days 0    
Month to date cooling degree days  
Year to date cooling degree days  
Moisture  
Dew Point 40 °F    
Average Humidity 84    
Maximum Humidity 95    
Minimum Humidity 63    
Precipitation  
Precipitation 0.03 in 0.11 in 1.41 in (2006)
Month to date precipitation 1.19  
Year to date precipitation 9.46  
Snow  
Snow 0.00 in - - ()
Month to date snowfall  
Since 1 July snowfall  
Snow Depth -    
Sea Level Pressure  
Sea Level Pressure 29.82 in    
Wind  
Wind Speed 6 mph (West)    
Max Wind Speed 20 mph    
Max Gust Speed 37 mph    
Visibility 10 miles    
Events Rain    
T = Trace of Precipitation, MM = Missing Value Source: NWS Daily Summary

Daily Weather History Graph

Daily Weather History Graph

Search for Another Location

Airport:

Trip Planner

Search our weather history database for the weather conditions in past years. The results will help you decide how hot, cold, wet, or windy it might be!

Date:

Astronomy

May. 11, 2013 Rise Set
Actual Time 6:16 AM EDT 8:51 PM EDT
Civil Twilight 5:43 AM EDT 9:24 PM EDT
Nautical Twilight 5:02 AM EDT 10:05 PM EDT
Astronomical Twilight 4:16 AM EDT 10:52 PM EDT
Moon 7:22 AM EDT (5/11) 10:32 PM EDT (5/11)
Length of Visible Light 15h 40m
Length of Day
14h 35m
Waxing Crescent, 3% of the Moon is Illuminated
May 11
Waxing Crescent
May 18
First Quarter
May 25
Full
May 31
Last Quarter
Jun 8
New

Hourly Weather History & Observations

Time (EDT) Temp. Windchill Dew Point Humidity Pressure Visibility Wind Dir Wind Speed Gust Speed Precip Events Conditions
12:13 AM 41.0 °F 36.4 °F 39.2 °F 93% 29.91 in 10.0 mi NNW 6.9 mph - N/A   Overcast
12:34 AM 41.0 °F 39.0 °F 39.2 °F 93% 29.90 in 10.0 mi North 3.5 mph - N/A   Overcast
12:53 AM 41.0 °F 38.0 °F 39.2 °F 93% 29.90 in 10.0 mi NNW 4.6 mph - N/A   Overcast
1:13 AM 41.0 °F 39.0 °F 39.4 °F 94% 29.89 in 10.0 mi NNW 3.5 mph - N/A   Overcast
1:33 AM 41.2 °F 37.3 °F 39.7 °F 95% 29.89 in 10.0 mi NW 5.8 mph - N/A   Overcast
1:53 AM 41.0 °F 39.0 °F 39.2 °F 93% 29.89 in 10.0 mi NW 3.5 mph - N/A   Overcast
2:13 AM 41.0 °F 39.0 °F 39.2 °F 93% 29.89 in 10.0 mi NW 3.5 mph - N/A   Overcast
2:33 AM 41.0 °F 39.0 °F 39.2 °F 93% 29.88 in 10.0 mi NW 3.5 mph - N/A   Overcast
2:53 AM 41.0 °F 38.0 °F 39.4 °F 94% 29.88 in 10.0 mi NW 4.6 mph - N/A   Overcast
3:13 AM 41.2 °F 39.2 °F 39.6 °F 94% 29.88 in 10.0 mi NW 3.5 mph - N/A   Overcast
3:33 AM 41.0 °F - 39.2 °F 93% 29.88 in 10.0 mi Calm Calm - N/A   Overcast
3:53 AM 41.2 °F - 39.4 °F 93% 29.88 in 10.0 mi Calm Calm - N/A   Overcast
4:13 AM 41.9 °F - 39.9 °F 93% 29.88 in 10.0 mi Calm Calm - N/A   Overcast
4:33 AM 41.7 °F - 39.6 °F 92% 29.88 in 10.0 mi Calm Calm - N/A   Overcast
4:53 AM 41.5 °F - 39.4 °F 92% 29.87 in 10.0 mi Calm Calm - N/A   Overcast
5:13 AM 41.4 °F 39.4 °F 39.4 °F 93% 29.87 in 10.0 mi WNW 3.5 mph - N/A   Overcast
5:33 AM 41.0 °F 38.0 °F 38.5 °F 91% 29.87 in 10.0 mi NNW 4.6 mph - N/A   Overcast
5:53 AM 40.5 °F - 38.3 °F 92% 29.87 in 10.0 mi Calm Calm - N/A   Overcast
6:13 AM 41.0 °F - 39.0 °F 93% 29.87 in 10.0 mi Calm Calm - N/A   Overcast
6:33 AM 41.4 °F 39.4 °F 39.4 °F 93% 29.87 in 10.0 mi WNW 3.5 mph - N/A   Overcast
6:53 AM 41.7 °F - 39.9 °F 93% 29.87 in 10.0 mi Calm Calm - N/A   Overcast
7:13 AM 41.9 °F 39.0 °F 40.1 °F 93% 29.87 in 10.0 mi WSW 4.6 mph - N/A   Overcast
7:33 AM 41.9 °F 38.2 °F 40.3 °F 94% 29.87 in 10.0 mi WSW 5.8 mph - N/A   Overcast
7:53 AM 42.1 °F 39.2 °F 40.6 °F 95% 29.87 in 10.0 mi WSW 4.6 mph - N/A   Overcast
8:13 AM 42.3 °F 39.4 °F 41.0 °F 95% 29.86 in 10.0 mi WSW 4.6 mph - N/A   Overcast
8:34 AM 42.8 °F 41.1 °F 41.2 °F 94% 29.86 in 10.0 mi West 3.5 mph - N/A   Overcast
8:53 AM 43.9 °F 39.9 °F 42.3 °F 94% 29.86 in 7.0 mi West 6.9 mph - N/A   Overcast
9:13 AM 44.4 °F 42.0 °F 42.6 °F 93% 29.85 in 7.0 mi West 4.6 mph - N/A   Overcast
9:34 AM 44.8 °F 40.4 °F 43.0 °F 93% 29.84 in 10.0 mi West 8.1 mph - N/A   Overcast
9:53 AM 45.5 °F 42.5 °F 43.2 °F 92% 29.83 in 10.0 mi WSW 5.8 mph - N/A   Overcast
10:13 AM 46.4 °F 42.9 °F 43.7 °F 90% 29.82 in 10.0 mi West 6.9 mph - N/A   Overcast
10:34 AM 48.0 °F - 44.2 °F 87% 29.82 in 10.0 mi WSW 3.5 mph - N/A   Overcast
10:53 AM 48.9 °F - 44.1 °F 83% 29.82 in 10.0 mi Calm Calm - N/A   Overcast
11:13 AM 50.2 °F - 45.5 °F 84% 29.79 in 10.0 mi Calm Calm - N/A   Overcast
11:33 AM 53.1 °F - 46.2 °F 78% 29.78 in 10.0 mi SSE 9.2 mph - N/A   Mostly Cloudy
11:53 AM 55.2 °F - 46.4 °F 72% 29.77 in 10.0 mi SSE 5.8 mph - N/A   Scattered Clouds
12:13 PM 56.5 °F - 46.4 °F 69% 29.76 in 10.0 mi South 9.2 mph - N/A   Scattered Clouds
12:33 PM 57.0 °F - 46.0 °F 67% 29.75 in 10.0 mi SSW 9.2 mph - N/A   Scattered Clouds
12:54 PM 57.7 °F - 46.6 °F 66% 29.74 in 10.0 mi SSW 10.4 mph - N/A   Mostly Cloudy
1:13 PM 57.6 °F - 46.2 °F 66% 29.74 in 10.0 mi SSW 10.4 mph 19.6 mph N/A   Mostly Cloudy
1:33 PM 58.1 °F - 46.9 °F 66% 29.73 in 10.0 mi SSW 13.8 mph 18.4 mph N/A   Overcast
1:54 PM 57.7 °F - 46.6 °F 66% 29.72 in 10.0 mi SSW 10.4 mph 17.3 mph N/A   Overcast
2:13 PM 58.3 °F - 47.3 °F 67% 29.72 in 10.0 mi SSW 13.8 mph 20.7 mph N/A   Overcast
2:33 PM 58.6 °F - 46.0 °F 63% 29.70 in 10.0 mi SSW 16.1 mph 19.6 mph N/A   Overcast
2:54 PM 58.3 °F - 47.1 °F 66% 29.70 in 10.0 mi South 12.7 mph 21.9 mph N/A   Overcast
3:13 PM 56.8 °F - 46.6 °F 69% 29.70 in 10.0 mi SSW 13.8 mph 18.4 mph N/A Rain Light Rain
3:33 PM 55.9 °F - 46.4 °F 70% 29.70 in 10.0 mi WSW 11.5 mph 17.3 mph N/A   Overcast
3:53 PM 54.5 °F - 48.7 °F 81% 29.68 in 7.0 mi SSW 8.1 mph 16.1 mph N/A Rain Rain
4:13 PM 54.5 °F - 47.8 °F 78% 29.68 in 10.0 mi SW 12.7 mph 16.1 mph N/A   Overcast
4:33 PM 53.4 °F - 48.2 °F 82% 29.68 in 7.0 mi SW 12.7 mph - N/A Rain Rain
4:53 PM 52.7 °F - 50.2 °F 91% 29.68 in 10.0 mi SSW 16.1 mph 20.7 mph 0.01 in Rain Light Rain
5:13 PM 45.0 °F 37.1 °F 40.3 °F 84% 29.73 in 7.0 mi NW 19.6 mph 36.8 mph 0.02 in Rain Light Rain
5:34 PM 42.8 °F 36.6 °F 39.0 °F 86% 29.76 in 10.0 mi WNW 11.5 mph 27.6 mph 0.02 in   Overcast
5:53 PM 42.8 °F 34.5 °F 39.6 °F 88% 29.77 in 10.0 mi WNW 18.4 mph 25.3 mph 0.02 in   Overcast
6:13 PM 40.8 °F 32.6 °F 36.7 °F 85% 29.80 in 10.0 mi NW 16.1 mph 32.2 mph N/A   Overcast
6:34 PM 41.0 °F 33.9 °F 35.6 °F 81% 29.81 in 10.0 mi NW 12.7 mph 27.6 mph N/A   Overcast
6:53 PM 41.7 °F 33.7 °F 35.2 °F 78% 29.82 in 10.0 mi NW 16.1 mph 23.0 mph N/A   Overcast
7:13 PM 42.8 °F 35.4 °F 35.2 °F 75% 29.83 in 10.0 mi NW 15.0 mph 23.0 mph N/A   Mostly Cloudy
7:34 PM 41.9 °F 33.4 °F 33.3 °F 71% 29.84 in 10.0 mi WNW 18.4 mph 27.6 mph N/A   Mostly Cloudy
7:53 PM 41.9 °F 34.6 °F 33.4 °F 72% 29.84 in 10.0 mi NW 13.8 mph 19.6 mph N/A   Mostly Cloudy
8:13 PM 41.4 °F 36.2 °F 33.4 °F 73% 29.85 in 10.0 mi West 8.1 mph - N/A   Scattered Clouds
8:34 PM 41.2 °F 36.6 °F 33.3 °F 73% 29.85 in 10.0 mi WNW 6.9 mph - N/A   Clear
8:53 PM 40.3 °F 35.5 °F 33.3 °F 76% 29.85 in 10.0 mi West 6.9 mph - N/A   Clear
9:13 PM 39.4 °F 37.2 °F 33.4 °F 79% 29.86 in 10.0 mi West 3.5 mph - N/A   Clear
9:34 PM 38.5 °F 36.1 °F 33.8 °F 83% 29.86 in 10.0 mi WSW 3.5 mph - N/A   Clear
9:53 PM 37.2 °F 33.6 °F 33.4 °F 86% 29.86 in 10.0 mi SW 4.6 mph - N/A   Clear
10:13 PM 37.0 °F 34.5 °F 33.4 °F 87% 29.85 in 10.0 mi WSW 3.5 mph - N/A   Clear
10:34 PM 37.6 °F 33.1 °F 34.0 °F 87% 29.85 in 10.0 mi WSW 5.8 mph - N/A   Clear
10:53 PM 37.4 °F 32.8 °F 34.0 °F 87% 29.85 in 10.0 mi SW 5.8 mph - N/A   Clear
11:14 PM 37.4 °F 33.8 °F 33.8 °F 87% 29.85 in 10.0 mi WSW 4.6 mph - N/A   Clear
11:33 PM 37.4 °F 32.8 °F 33.8 °F 87% 29.84 in 10.0 mi WSW 5.8 mph - N/A   Clear
11:53 PM 37.8 °F 32.5 °F 34.0 °F 86% 29.84 in 10.0 mi WSW 6.9 mph - N/A   Clear